Regional Weather Roundup
Issued by NWS

Home | Current Version | Previous Version | Text Only | Print | Product List | Glossary On
Versions: 1 2 3 4 5 6 7 8 9 10 11 12 13 14 15 16 17 18 19 20 21 22 23 24 25 26 27 28 29 30 31 32 33 34 35 36 37 38 39 40 41 42 43 44 45 46 47 48 49 50
000
ASUS45 KSLC 241010
RWRUT

UTAH REGIONAL WEATHER ROUNDUP
NATIONAL WEATHER SERVICE SALT LAKE CITY UT
400 AM MDT SUN SEP 24 2017

UTZ001>011-023>025-241100-

NORTHERN UTAH

CITY           SKY/WX    TMP DP  RH WIND       PRES   REMARKS
BRIGHAM CITY   CLOUDY    47  36  66 S8        29.91S
HILL AFB       CLOUDY    43  41  93 E3        29.90F
LOGAN          CLOUDY    44  38  79 N10       29.92F
OGDEN          CLOUDY    45  42  89 CALM      29.90F
SALT LAKE CITY LGT RAIN  46  44  93 CALM      29.89F
TOOELE VALLEY  LGT RAIN  43  41  93 S3        29.93S
WENDOVER       CLOUDY    47  30  51 NW17      29.97R
HEBER CITY     MIX PCPN  39  36  87 E3        29.88F
WEST JORDAN    CLOUDY    42  42 100 CALM      29.91F

$$

UTZ011>015-024>027-241100-

CENTRAL/NORTHEAST UTAH

CITY           SKY/WX    TMP DP  RH WIND       PRES   REMARKS
PROVO AIRPORT  LGT RAIN  42  40  92 E7        29.90F
MOAB/CANYONLAN CLOUDY    51  40  65 NW22      29.80S
DELTA          CLOUDY    41  37  87 W5        29.93S
PRICE          CLOUDY    43  37  79 E9        29.85F
ROOSEVELT      CLOUDY    45  41  87 SW8       29.84F
VERNAL         PTCLDY    44  39  82 CALM      29.83F

$$

UTZ013>016-019>022-027-241100-

SOUTHERN UTAH

CITY           SKY/WX    TMP DP  RH WIND       PRES   REMARKS
BRYCE CANYON   PTCLDY    32  29  88 W10       29.94S WCI  24
CEDAR CITY     CLOUDY    36  35  96 CALM      29.97S
MILFORD        CLOUDY    39  38  96 S9        29.96S WCI  33
ST GEORGE      CLOUDY    47  35  63 S3        29.96S
HANKSVILLE     MOCLDY    50  30  46 W5        29.83S
BLANDING         N/A     44  25  47 SW3       29.97R

$$

REGIONAL REPORTS     COLORADO/ARIZONA

CITY           SKY/WX    TMP DP  RH WIND       PRES   REMARKS
CRAIG, CO      CLOUDY    37  34  89 CALM      29.89F
GRAND JUNCTION CLEAR     39  39 100 E5        29.81S
RIFLE, CO      CLEAR     39  38  96 CALM      29.85F
MONTROSE, CO   CLEAR     39  37  92 S3        29.87S
CORTEZ, CO     CLEAR     40  34  79 SW3       29.91R
PAGE, AZ       CLEAR     51  29  42 SW8       29.89S
GRAND CANYON   CLEAR     32  20  61 SW3       29.97S
KINGMAN, AZ    CLEAR     46  29  51 E9        29.95S
FLAGSTAFF, AZ  CLEAR     35  20  54 W3        29.97F

$$

REGIONAL REPORTS    NEVADA/IDAHO/WYOMING

CITY           SKY/WX    TMP DP  RH WIND       PRES   REMARKS
LAS VEGAS, NV  CLEAR     58  34  40 CALM      29.95R
ELY, NY        MOCLDY    29  27  92 S6        30.02S WCI  23
ELKO, NV       CLEAR     31  27  85 NW3       30.04S
POCATELLO, ID  CLOUDY    37  33  85 CALM      30.00S
BURLEY, ID     CLOUDY    42  35  76 VRB3      30.00S
FORT BRIDGER,  SNOW      34  34 100 E9        29.95S VSB 1/2 WCI  26
EVANSTON, WY   FOG       34  34 100 N5        29.91S VSB 1/4 WCI  30
ROCK SPRINGS,  CLOUDY    35  31  85 NE28G37   29.93F WCI  22
KEMMERER, WY   LGT SNOW  34  32  93 E16G29    29.94F WCI  23

$$



USA.gov is the U.S. government's official web portal to all federal, state and local government web resources and services.